Time,TemperatureF,DewpointF,PressureIn,WindDirection,WindDirectionDegrees,WindSpeedMPH,WindSpeedGustMPH,Humidity,HourlyPrecipIn,Conditions,Clouds,dailyrainin,SolarRadiationWatts/m^2,SoftwareType,DateUTC
2013-06-09 00:12:00,81.0,27.0,-100.00,NW,310,8.0,21.0,14,0.00,,,0.00,686.000000,,2013-06-09 00:12:00,
2013-06-09 00:22:00,81.0,27.0,-100.00,NW,310,8.0,21.0,14,0.00,,,0.00,686.000000,,2013-06-09 00:22:00,
2013-06-09 00:32:00,81.0,27.0,-100.00,NW,310,8.0,21.0,14,0.00,,,0.00,686.000000,,2013-06-09 00:32:00,
2013-06-09 00:42:00,81.0,27.0,-100.00,NW,310,8.0,21.0,14,0.00,,,0.00,686.000000,,2013-06-09 00:42:00,
2013-06-09 00:50:00,80.0,27.0,-100.00,WNW,294,6.0,17.0,14,0.00,,,-99.99,470.000000,,2013-06-09 00:50:00,
2013-06-09 01:12:00,80.0,27.0,-100.00,WNW,294,6.0,17.0,14,0.00,,,-99.99,470.000000,,2013-06-09 01:12:00,
2013-06-09 01:22:00,80.0,27.0,-100.00,WNW,294,6.0,17.0,14,0.00,,,-99.99,470.000000,,2013-06-09 01:22:00,
2013-06-09 01:32:00,80.0,27.0,-100.00,WNW,294,6.0,17.0,14,0.00,,,-99.99,470.000000,,2013-06-09 01:32:00,
2013-06-09 01:42:00,80.0,27.0,-100.00,WNW,294,6.0,17.0,14,0.00,,,-99.99,470.000000,,2013-06-09 01:42:00,
2013-06-09 01:50:00,77.0,26.0,-100.00,WNW,294,6.0,15.0,15,0.00,,,0.00,260.000000,,2013-06-09 01:50:00,
2013-06-09 02:12:00,77.0,26.0,-100.00,WNW,294,6.0,15.0,15,0.00,,,0.00,260.000000,,2013-06-09 02:12:00,
2013-06-09 02:22:00,77.0,26.0,-100.00,WNW,294,6.0,15.0,15,0.00,,,0.00,260.000000,,2013-06-09 02:22:00,
2013-06-09 02:32:00,77.0,26.0,-100.00,WNW,294,6.0,15.0,15,0.00,,,0.00,260.000000,,2013-06-09 02:32:00,
2013-06-09 02:42:00,77.0,26.0,-100.00,WNW,294,6.0,15.0,15,0.00,,,0.00,260.000000,,2013-06-09 02:42:00,
2013-06-09 02:50:00,65.0,25.0,-100.00,NNW,327,6.0,10.0,22,0.00,,,0.00,27.000000,,2013-06-09 02:50:00,
2013-06-09 03:12:00,65.0,25.0,-100.00,NNW,327,6.0,10.0,22,0.00,,,0.00,27.000000,,2013-06-09 03:12:00,
2013-06-09 03:22:00,65.0,25.0,-100.00,NNW,327,6.0,10.0,22,0.00,,,0.00,27.000000,,2013-06-09 03:22:00,
2013-06-09 03:32:00,65.0,25.0,-100.00,NNW,327,6.0,10.0,22,0.00,,,0.00,27.000000,,2013-06-09 03:32:00,
2013-06-09 03:43:00,65.0,25.0,-100.00,NNW,327,6.0,10.0,22,0.00,,,0.00,27.000000,,2013-06-09 03:43:00,
2013-06-09 03:50:00,61.0,26.0,-100.00,WSW,254,4.0,8.0,26,0.00,,,0.00,0.000000,,2013-06-09 03:50:00,
2013-06-09 04:12:00,61.0,26.0,-100.00,WSW,254,4.0,8.0,26,0.00,,,0.00,0.000000,,2013-06-09 04:12:00,
2013-06-09 04:22:00,61.0,26.0,-100.00,WSW,254,4.0,8.0,26,0.00,,,0.00,0.000000,,2013-06-09 04:22:00,
2013-06-09 04:32:00,61.0,26.0,-100.00,WSW,254,4.0,8.0,26,0.00,,,0.00,0.000000,,2013-06-09 04:32:00,
2013-06-09 04:42:00,61.0,26.0,-100.00,WSW,254,4.0,8.0,26,0.00,,,0.00,0.000000,,2013-06-09 04:42:00,
2013-06-09 04:50:00,57.0,27.0,-100.00,WSW,244,6.0,9.0,31,0.00,,,0.00,0.000000,,2013-06-09 04:50:00,
2013-06-09 05:12:00,57.0,27.0,-100.00,WSW,244,6.0,9.0,31,0.00,,,0.00,0.000000,,2013-06-09 05:12:00,
2013-06-09 05:22:00,57.0,27.0,-100.00,WSW,244,6.0,9.0,31,0.00,,,0.00,0.000000,,2013-06-09 05:22:00,
2013-06-09 05:32:00,57.0,27.0,-100.00,WSW,244,6.0,9.0,31,0.00,,,0.00,0.000000,,2013-06-09 05:32:00,
2013-06-09 05:42:00,57.0,27.0,-100.00,WSW,244,6.0,9.0,31,0.00,,,0.00,0.000000,,2013-06-09 05:42:00,
2013-06-09 05:50:00,65.0,25.0,-100.00,NNW,327,10.0,16.0,22,0.00,,,0.00,0.000000,,2013-06-09 05:50:00,
2013-06-09 06:12:00,65.0,25.0,-100.00,NNW,327,10.0,16.0,22,0.00,,,0.00,0.000000,,2013-06-09 06:12:00,
2013-06-09 06:22:00,65.0,25.0,-100.00,NNW,327,10.0,16.0,22,0.00,,,0.00,0.000000,,2013-06-09 06:22:00,
2013-06-09 06:32:00,65.0,25.0,-100.00,NNW,327,10.0,16.0,22,0.00,,,0.00,0.000000,,2013-06-09 06:32:00,
2013-06-09 06:42:00,65.0,25.0,-100.00,NNW,327,10.0,16.0,22,0.00,,,0.00,0.000000,,2013-06-09 06:42:00,
2013-06-09 06:50:00,64.0,26.0,-100.00,NW,318,8.0,21.0,24,0.00,,,0.00,0.000000,,2013-06-09 06:50:00,
2013-06-09 07:12:00,64.0,26.0,-100.00,NW,318,8.0,21.0,24,0.00,,,0.00,0.000000,,2013-06-09 07:12:00,
2013-06-09 07:22:00,64.0,26.0,-100.00,NW,318,8.0,21.0,24,0.00,,,0.00,0.000000,,2013-06-09 07:22:00,
2013-06-09 07:32:00,64.0,26.0,-100.00,NW,318,8.0,21.0,24,0.00,,,0.00,0.000000,,2013-06-09 07:32:00,
2013-06-09 07:42:00,64.0,26.0,-100.00,NW,318,8.0,21.0,24,0.00,,,0.00,0.000000,,2013-06-09 07:42:00,
2013-06-09 07:50:00,62.0,28.0,-100.00,NW,323,8.0,18.0,27,0.00,,,0.00,0.000000,,2013-06-09 07:50:00,
2013-06-09 08:12:00,62.0,28.0,-100.00,NW,323,8.0,18.0,27,0.00,,,0.00,0.000000,,2013-06-09 08:12:00,
2013-06-09 08:22:00,62.0,28.0,-100.00,NW,323,8.0,18.0,27,0.00,,,0.00,0.000000,,2013-06-09 08:22:00,
2013-06-09 08:32:00,62.0,28.0,-100.00,NW,323,8.0,18.0,27,0.00,,,0.00,0.000000,,2013-06-09 08:32:00,
2013-06-09 08:42:00,62.0,28.0,-100.00,NW,323,8.0,18.0,27,0.00,,,0.00,0.000000,,2013-06-09 08:42:00,
2013-06-09 08:50:00,58.0,28.0,-100.00,NW,325,6.0,13.0,32,0.00,,,0.00,0.000000,,2013-06-09 08:50:00,
2013-06-09 09:12:00,58.0,28.0,-100.00,NW,325,6.0,13.0,32,0.00,,,0.00,0.000000,,2013-06-09 09:12:00,
2013-06-09 09:22:00,58.0,28.0,-100.00,NW,325,6.0,13.0,32,0.00,,,0.00,0.000000,,2013-06-09 09:22:00,
2013-06-09 09:33:00,58.0,28.0,-100.00,NW,325,6.0,13.0,32,0.00,,,0.00,0.000000,,2013-06-09 09:33:00,
2013-06-09 09:43:00,58.0,28.0,-100.00,NW,325,6.0,13.0,32,0.00,,,0.00,0.000000,,2013-06-09 09:43:00,
2013-06-09 09:50:00,54.0,28.0,-100.00,WNW,288,4.0,8.0,37,0.00,,,0.00,0.000000,,2013-06-09 09:50:00,
2013-06-09 10:12:00,54.0,28.0,-100.00,WNW,288,4.0,8.0,37,0.00,,,0.00,0.000000,,2013-06-09 10:12:00,
2013-06-09 10:23:00,54.0,28.0,-100.00,WNW,288,4.0,8.0,37,0.00,,,0.00,0.000000,,2013-06-09 10:23:00,
2013-06-09 10:32:00,54.0,28.0,-100.00,WNW,288,4.0,8.0,37,0.00,,,0.00,0.000000,,2013-06-09 10:32:00,
2013-06-09 10:42:00,54.0,28.0,-100.00,WNW,288,4.0,8.0,37,0.00,,,0.00,0.000000,,2013-06-09 10:42:00,
2013-06-09 10:50:00,50.0,29.0,-100.00,WSW,254,4.0,8.0,44,0.00,,,0.00,0.000000,,2013-06-09 10:50:00,
2013-06-09 11:12:00,50.0,29.0,-100.00,WSW,254,4.0,8.0,44,0.00,,,0.00,0.000000,,2013-06-09 11:12:00,
2013-06-09 11:22:00,50.0,29.0,-100.00,WSW,254,4.0,8.0,44,0.00,,,0.00,0.000000,,2013-06-09 11:22:00,
2013-06-09 11:32:00,50.0,29.0,-100.00,WSW,254,4.0,8.0,44,0.00,,,0.00,0.000000,,2013-06-09 11:32:00,
2013-06-09 11:42:00,50.0,29.0,-100.00,WSW,254,4.0,8.0,44,0.00,,,0.00,0.000000,,2013-06-09 11:42:00,
2013-06-09 11:50:00,47.0,30.0,-100.00,WSW,251,7.0,9.0,51,0.00,,,0.00,1.000000,,2013-06-09 11:50:00,
2013-06-09 12:12:00,47.0,30.0,-100.00,WSW,251,7.0,9.0,51,0.00,,,0.00,1.000000,,2013-06-09 12:12:00,
2013-06-09 12:22:00,47.0,30.0,-100.00,WSW,251,7.0,9.0,51,0.00,,,0.00,1.000000,,2013-06-09 12:22:00,
2013-06-09 12:32:00,47.0,30.0,-100.00,WSW,251,7.0,9.0,51,0.00,,,0.00,1.000000,,2013-06-09 12:32:00,
2013-06-09 12:42:00,47.0,30.0,-100.00,WSW,251,7.0,9.0,51,0.00,,,0.00,1.000000,,2013-06-09 12:42:00,
2013-06-09 12:50:00,52.0,32.0,-100.00,WSW,241,6.0,9.0,46,0.00,,,0.00,59.000000,,2013-06-09 12:50:00,
2013-06-09 13:12:00,52.0,32.0,-100.00,WSW,241,6.0,9.0,46,0.00,,,0.00,59.000000,,2013-06-09 13:12:00,
2013-06-09 13:22:00,52.0,32.0,-100.00,WSW,241,6.0,9.0,46,0.00,,,0.00,59.000000,,2013-06-09 13:22:00,
2013-06-09 13:32:00,52.0,32.0,-100.00,WSW,241,6.0,9.0,46,0.00,,,0.00,59.000000,,2013-06-09 13:32:00,
2013-06-09 13:42:00,52.0,32.0,-100.00,WSW,241,6.0,9.0,46,0.00,,,0.00,59.000000,,2013-06-09 13:42:00,
2013-06-09 13:50:00,60.0,33.0,-100.00,WSW,247,6.0,12.0,36,0.00,,,0.00,274.000000,,2013-06-09 13:50:00,
2013-06-09 14:12:00,60.0,33.0,-100.00,WSW,247,6.0,12.0,36,0.00,,,0.00,274.000000,,2013-06-09 14:12:00,
2013-06-09 14:22:00,60.0,33.0,-100.00,WSW,247,6.0,12.0,36,0.00,,,0.00,274.000000,,2013-06-09 14:22:00,
2013-06-09 14:32:00,60.0,33.0,-100.00,WSW,247,6.0,12.0,36,0.00,,,0.00,274.000000,,2013-06-09 14:32:00,
2013-06-09 14:42:00,60.0,33.0,-100.00,WSW,247,6.0,12.0,36,0.00,,,0.00,274.000000,,2013-06-09 14:42:00,
2013-06-09 14:50:00,70.0,29.0,-100.00,SSE,155,2.0,7.0,22,0.00,,,0.00,501.000000,,2013-06-09 14:50:00,
2013-06-09 15:12:00,70.0,29.0,-100.00,SSE,155,2.0,7.0,22,0.00,,,0.00,501.000000,,2013-06-09 15:12:00,
2013-06-09 15:22:00,70.0,29.0,-100.00,SSE,155,2.0,7.0,22,0.00,,,0.00,501.000000,,2013-06-09 15:22:00,
2013-06-09 15:33:00,70.0,29.0,-100.00,SSE,155,2.0,7.0,22,0.00,,,0.00,501.000000,,2013-06-09 15:33:00,
2013-06-09 15:43:00,70.0,29.0,-100.00,SSE,155,2.0,7.0,22,0.00,,,0.00,501.000000,,2013-06-09 15:43:00,
2013-06-09 15:50:00,75.0,27.0,-100.00,ENE,69,4.0,10.0,17,0.00,,,0.00,712.000000,,2013-06-09 15:50:00,
2013-06-09 16:13:00,75.0,27.0,-100.00,ENE,69,4.0,10.0,17,0.00,,,0.00,712.000000,,2013-06-09 16:13:00,
2013-06-09 16:23:00,75.0,27.0,-100.00,ENE,69,4.0,10.0,17,0.00,,,0.00,712.000000,,2013-06-09 16:23:00,
2013-06-09 16:33:00,75.0,27.0,-100.00,ENE,69,4.0,10.0,17,0.00,,,0.00,712.000000,,2013-06-09 16:33:00,
2013-06-09 16:42:00,75.0,27.0,-100.00,ENE,69,4.0,10.0,17,0.00,,,0.00,712.000000,,2013-06-09 16:42:00,
2013-06-09 16:50:00,76.0,27.0,-100.00,SSE,165,5.0,12.0,16,0.00,,,0.00,903.000000,,2013-06-09 16:50:00,
2013-06-09 17:12:00,76.0,27.0,-100.00,SSE,165,5.0,12.0,16,0.00,,,0.00,903.000000,,2013-06-09 17:12:00,
2013-06-09 17:22:00,76.0,27.0,-100.00,SSE,165,5.0,12.0,16,0.00,,,0.00,903.000000,,2013-06-09 17:22:00,
2013-06-09 17:32:00,76.0,27.0,-100.00,SSE,165,5.0,12.0,16,0.00,,,0.00,903.000000,,2013-06-09 17:32:00,
2013-06-09 17:42:00,76.0,27.0,-100.00,SSE,165,5.0,12.0,16,0.00,,,0.00,903.000000,,2013-06-09 17:42:00,
2013-06-09 17:50:00,79.0,26.0,-100.00,East,97,4.0,10.0,14,0.00,,,0.00,1053.000000,,2013-06-09 17:50:00,
2013-06-09 18:12:00,79.0,26.0,-100.00,East,97,4.0,10.0,14,0.00,,,0.00,1053.000000,,2013-06-09 18:12:00,
2013-06-09 18:21:00,79.0,26.0,-100.00,East,97,4.0,10.0,14,0.00,,,0.00,1053.000000,,2013-06-09 18:21:00,
2013-06-09 18:32:00,79.0,26.0,-100.00,East,97,4.0,10.0,14,0.00,,,0.00,1053.000000,,2013-06-09 18:32:00,
2013-06-09 18:42:00,79.0,26.0,-100.00,East,97,4.0,10.0,14,0.00,,,0.00,1053.000000,,2013-06-09 18:42:00,
2013-06-09 18:50:00,82.0,26.0,-100.00,SE,129,4.0,12.0,13,0.00,,,0.00,1145.000000,,2013-06-09 18:50:00,
2013-06-09 19:12:00,82.0,26.0,-100.00,SE,129,4.0,12.0,13,0.00,,,0.00,1145.000000,,2013-06-09 19:12:00,
2013-06-09 19:22:00,82.0,26.0,-100.00,SE,129,4.0,12.0,13,0.00,,,0.00,1145.000000,,2013-06-09 19:22:00,
2013-06-09 19:32:00,82.0,26.0,-100.00,SE,129,4.0,12.0,13,0.00,,,0.00,1145.000000,,2013-06-09 19:32:00,
2013-06-09 19:42:00,82.0,26.0,-100.00,SE,129,4.0,12.0,13,0.00,,,0.00,1145.000000,,2013-06-09 19:42:00,
2013-06-09 19:50:00,84.0,28.0,-100.00,ENE,59,5.0,17.0,13,0.00,,,0.00,1174.000000,,2013-06-09 19:50:00,
2013-06-09 20:12:00,84.0,28.0,-100.00,ENE,59,5.0,17.0,13,0.00,,,0.00,1174.000000,,2013-06-09 20:12:00,
2013-06-09 20:22:00,84.0,28.0,-100.00,ENE,59,5.0,17.0,13,0.00,,,0.00,1174.000000,,2013-06-09 20:22:00,
2013-06-09 20:32:00,84.0,28.0,-100.00,ENE,59,5.0,17.0,13,0.00,,,0.00,1174.000000,,2013-06-09 20:32:00,
2013-06-09 20:42:00,84.0,28.0,-100.00,ENE,59,5.0,17.0,13,0.00,,,0.00,1174.000000,,2013-06-09 20:42:00,
2013-06-09 20:50:00,85.0,29.0,-100.00,NNE,16,3.0,15.0,13,0.00,,,0.00,1145.000000,,2013-06-09 20:50:00,
2013-06-09 21:12:00,85.0,29.0,-100.00,NNE,16,3.0,15.0,13,0.00,,,0.00,1145.000000,,2013-06-09 21:12:00,
2013-06-09 21:22:00,85.0,29.0,-100.00,NNE,16,3.0,15.0,13,0.00,,,0.00,1145.000000,,2013-06-09 21:22:00,
2013-06-09 21:33:00,85.0,29.0,-100.00,NNE,16,3.0,15.0,13,0.00,,,0.00,1145.000000,,2013-06-09 21:33:00,
2013-06-09 21:43:00,85.0,29.0,-100.00,NNE,16,3.0,15.0,13,0.00,,,0.00,1145.000000,,2013-06-09 21:43:00,
2013-06-09 21:50:00,87.0,28.0,-100.00,NNE,26,5.0,16.0,12,0.00,,,0.00,1058.000000,,2013-06-09 21:50:00,
2013-06-09 22:13:00,87.0,28.0,-100.00,NNE,26,5.0,16.0,12,0.00,,,0.00,1058.000000,,2013-06-09 22:13:00,
2013-06-09 22:23:00,87.0,28.0,-100.00,NNE,26,5.0,16.0,12,0.00,,,0.00,1058.000000,,2013-06-09 22:23:00,
2013-06-09 22:33:00,87.0,28.0,-100.00,NNE,26,5.0,16.0,12,0.00,,,0.00,1058.000000,,2013-06-09 22:33:00,
2013-06-09 22:42:00,87.0,28.0,-100.00,NNE,26,5.0,16.0,12,0.00,,,0.00,1058.000000,,2013-06-09 22:42:00,
2013-06-09 22:50:00,87.0,26.0,-100.00,WNW,301,7.0,17.0,11,0.00,,,0.00,911.000000,,2013-06-09 22:50:00,
2013-06-09 23:12:00,87.0,26.0,-100.00,WNW,301,7.0,17.0,11,0.00,,,0.00,911.000000,,2013-06-09 23:12:00,
2013-06-09 23:22:00,87.0,26.0,-100.00,WNW,301,7.0,17.0,11,0.00,,,0.00,911.000000,,2013-06-09 23:22:00,
2013-06-09 23:32:00,87.0,26.0,-100.00,WNW,301,7.0,17.0,11,0.00,,,0.00,911.000000,,2013-06-09 23:32:00,
2013-06-09 23:42:00,87.0,26.0,-100.00,WNW,301,7.0,17.0,11,0.00,,,0.00,911.000000,,2013-06-09 23:42:00,
2013-06-09 23:50:00,86.0,25.0,-100.00,NW,310,6.0,15.0,11,0.00,,,0.00,725.000000,,2013-06-09 23:50:00,